This demonstration page uses our WeatherBlox Daily Observations layout. Learn more.

Left ArrowRight Arrow

Hourly Observations for September 27, 2015

Temp ( °F °C ) Dew Point ( °F °C ) Humidity (%) Winds ( mph kmh ) Pressure ( in mb ) Visibility ( mi km ) Precip ( " mm )
12:53 am 00:53 Clear 67 19.4 45 7.2 45 45 NNW 3 6 29.78 1009 10 16 0.00 0.00
1:53 am 01:53 Clear 66 18.9 46 7.8 49 49 Calm 29.79 1009 10 16 0.00 0.00
2:53 am 02:53 Clear 67 19.4 48 8.9 51 51 N 3 6 29.79 1009 10 16 0.00 0.00
3:53 am 03:53 Clear 67 19.4 48 8.9 51 51 NNW 6 9 29.78 1009 10 16 0.00 0.00
4:53 am 04:53 Clear 62 16.7 47 8.3 58 58 NW 3 6 29.78 1009 10 16 0.00 0.00
5:53 am 05:53 Clear 62 16.7 48 8.9 60 60 NNW 5 7 29.79 1009 10 16 0.00 0.00
6:53 am 06:53 Clear 59 15 46 7.8 62 62 N 3 6 29.80 1009 10 16 0.00 0.00
7:53 am 07:53 Sunny 66 18.9 49 9.4 54 54 NNW 3 6 29.80 1009 10 16 0.00 0.00
8:53 am 08:53 Sunny 74 23.3 49 9.4 41 41 NNW 5 7 29.81 1010 10 16 0.00 0.00
9:53 am 09:53 Sunny 81 27.2 44 6.7 27 27 VRB 7 11 29.80 1009 10 16 0.00 0.00
10:53 am 10:53 Sunny 85 29.4 43 6.1 23 23 NNW 7 11 29.80 1009 10 16 0.00 0.00
11:53 am 11:53 Sunny 88 31.1 42 5.6 20 20 VRB 3 6 29.78 1009 10 16 0.00 0.00
12:53 pm 12:53 Sunny 91 32.8 41 5 17 17 Calm 29.76 1008 10 16 0.00 0.00
1:53 pm 13:53 Sunny 93 33.9 42 5.6 17 17 S 9 15 29.74 1007 10 16 0.00 0.00
2:53 pm 14:53 Sunny 94 34.4 42 5.6 17 17 SSE 12 19 29.72 1007 10 16 0.00 0.00
3:53 pm 15:53 Sunny 95 35 41 5 15 15 S 7 11 29.70 1006 10 16 0.00 0.00
4:53 pm 16:53 Sunny 95 35 42 5.6 16 16 SSE 13 20 29.70 1006 10 16 0.00 0.00
5:53 pm 17:53 Sunny 92 33.3 42 5.6 18 18 S 9 15 29.70 1006 10 16 0.00 0.00
6:53 pm 18:53 Sunny 86 30 38 3.3 18 18 SSE 8 13 29.71 1006 10 16 0.00 0.00
7:53 pm 19:53 Clear 81 27.2 44 6.7 27 27 S 6 9 29.73 1007 10 16 0.00 0.00
8:53 pm 20:53 Clear 77 25 45 7.2 32 32 N 3 6 29.75 1008 10 16 0.00 0.00
9:53 pm 21:53 Clear 73 22.8 47 8.3 40 40 Calm 29.76 1008 10 16 0.00 0.00
10:53 pm 22:53 Clear 70 21.1 46 7.8 42 42 Calm 29.77 1008 10 16 0.00 0.00
11:53 pm 23:53 Clear 68 20 47 8.3 47 47 Calm 29.79 1009 10 16 0.00 0.00

Powered by AerisWeather